Погода в Верх-Юсьве

Россия / Пермский край     58°50′17″N   54°39′27″E
темп.,
°C
ветер,
м/с
пор.,
м/с
влажн.,
%
обл.,
%
осадки,
мм/ч
давл.,
гПа
погр.,
м
2 августа, пн
пн223:00+14з2891100 0.1 1010156
02:00+13з229572 0.0 101145
05:00+13зюз249721 0.0 101184
08:00+17юз3880100 0.0 1012297
11:00+20юз366590 0.1 1011498
14:00+23юз496255 0.1 10111041
17:00+24зюз4964100 0.3 10101295
20:00+20зюз278126 0.4 1010252
3 августа, вт
вт323:00+17з22955 0.4 101128
02:00+16з1194100 0.0 101111
05:00+15юз1195100 0.0 101211
08:00+18ю2386100 0.0 1012123
11:00+24ю236543 0.0 1012615
14:00+27ю235728 0.0 10111038
17:00+29ю235138 0.0 10101452
20:00+25юв257527 0.0 1009120
4 августа, ср
ср423:00+20ююв37815 0.0 1009104
02:00+18ююв389132 0.3 1009126
05:00+17вюв119512 1.3 100911
08:00+20зюз138842 0.2 1010125
11:00+24юз346489 0.2 1011660
14:00+25зюз236660 0.1 1010559
17:00+27зюз245461 0.1 10091440
20:00+21сз4889100 2.4 1009179
5 августа, чт
чт523:00+18ссз2398100 22.2 101079
02:00+17сз389969 0.0 1011305
05:00+15сз389924 0.0 1012282
08:00+16ссз39940 0.0 1012389
11:00+22ссз356365 0.0 1013920
14:00+20ссз3783100 1.4 1013467
17:00+22с465022 2.0 10141591
20:00+18сз267189 0.0 1015175
6 августа, пт
пт623:00+15ссз237455 0.0 101569
02:00+15с297164 0.0 1016296
05:00+11ссз38795 0.0 1017153
08:00+13ссз38680 0.0 1017267
11:00+18с46530 0.0 10171013
14:00+20с454322 0.0 10172098
17:00+19с564067 0.0 10172102
20:00+15с386193 0.0 1017328